Printer-friendly version

IAU Minor Planet Center

Minor Planet Center

MPEC 2006-U32 : COMET P/2006 T1 (LEVY)

The following Minor Planet Electronic Circular may be linked-to from your own Web pages, but must not otherwise be redistributed electronically.


Read MPEC 2006-U31 Read MPEC 2006-U33


M.P.E.C. 2006-U32                                Issued 2006 Oct. 20, 18:53 UT

     The Minor Planet Electronic Circulars contain information on unusual
         minor planets and routine data on comets.  They are published
   on behalf of Commission 20 of the International Astronomical Union by the
          Minor Planet Center, Smithsonian Astrophysical Observatory,
                          Cambridge, MA 02138, U.S.A.

             Prepared using the Tamkin Foundation Computer Network

                              MPC@CFA.HARVARD.EDU
          URL http://cfa-www.harvard.edu/iau/mpc.html  ISSN 1523-6714

                            COMET P/2006 T1 (LEVY)

Observations:
    PK06T010  C2006 10 12.77572 10 16 34.11 +09 09 23.9                 EU032349
    PK06T010  C2006 10 12.77745 10 16 34.46 +09 09 19.6          11.7 T EU032349
    PK06T010  C2006 10 13.47270 10 19 05.63 +08 42 01.3                 EU032H06
    PK06T010  C2006 10 13.47560 10 19 06.25 +08 41 54.8                 EU032H06
    PK06T010  C2006 10 14.78252 10 23 47.74 +07 50 42.7                 EU032349
    PK06T010  C2006 10 14.78591 10 23 48.47 +07 50 34.8                 EU032349
    PK06T010  C2006 10 14.78929 10 23 49.19 +07 50 26.8          10.6 T EU032349
    PK06T010  C2006 10 14.80439 10 23 52.45 +07 49 51.3                 EU032D70
    PK06T010  C2006 10 14.81326 10 23 54.38 +07 49 31.4                 EU032D70
    PK06T010  C2006 10 14.82046 10 23 55.90 +07 49 14.9          11.9 T EU032D70
    PK06T010  C2006 10 15.14606 10 25 05.43 +07 36 28.5          14.0 N EU032118
    PK06T010  C2006 10 15.14838 10 25 05.93 +07 36 23.0          14.0 N EU032118
    PK06T010  C2006 10 15.14994 10 25 06.23 +07 36 19.6          14.0 N EU032118
    PK06T010  C2006 10 15.15078 10 25 06.45 +07 36 17.6          15   N EU032461
    PK06T010  C2006 10 15.15146 10 25 06.57 +07 36 16.3                 EU032461
    PK06T010  C2006 10 15.15216 10 25 06.72 +07 36 14.8                 EU032461
    PK06T010  C2006 10 15.15226 10 25 06.74 +07 36 14.0          13.9 N EU032118
    PK06T010  C2006 10 15.15285 10 25 06.88 +07 36 12.7                 EU032461
    PK06T010  C2006 10 15.15353 10 25 07.03 +07 36 11.3                 EU032461
    PK06T010  C2006 10 15.15422 10 25 07.16 +07 36 09.7                 EU032461
    PK06T010  C2006 10 15.15492 10 25 07.31 +07 36 08.1                 EU032461
    PK06T010  C2006 10 15.15560 10 25 07.47 +07 36 06.2                 EU032461
    PK06T010  C2006 10 15.15614 10 25 07.57 +07 36 05.0          13.9 N EU032118
    PK06T010  C2006 10 15.15631 10 25 07.60 +07 36 05.2                 EU032461
    PK06T010  C2006 10 15.75825 10 27 15.89 +07 12 35.6                 EU032349
    PK06T010  C2006 10 15.75992 10 27 16.24 +07 12 31.9                 EU032349
    PK06T010  C2006 10 15.76157 10 27 16.57 +07 12 28.1          10.7 T EU032349
    PK06T010  C2006 10 15.80251 10 27 25.30 +07 10 51.0                 EU032361
    PK06T010  C2006 10 15.80328 10 27 25.56 +07 10 49.6                 EU032361
    PK06T010   2006 10 15.80486 10 27 25.76 +07 10 46.3           9.7 T EU032372
    PK06T010  C2006 10 15.80535 10 27 25.92 +07 10 44.4                 EU032361
    PK06T010   2006 10 15.80833 10 27 26.49 +07 10 38.3                 EU032372
    PK06T010  C2006 10 15.80877 10 27 26.58 +07 10 37.2          11.4 T EU032361
    PK06T010   2006 10 15.81024 10 27 26.90 +07 10 33.7           9.8 T EU032372
    PK06T010  C2006 10 15.81086 10 27 27.00 +07 10 33.2          11.3 T EU032361
    PK06T010  C2006 10 15.81294 10 27 27.51 +07 10 28.3                 EU032361
    PK06T010  C2006 10 15.81502 10 27 27.91 +07 10 21.5          11.4 T EU032361
    PK06T010  C2006 10 15.81711 10 27 28.33 +07 10 18.5          11.4 T EU032361
    PK06T010  C2006 10 15.81806 10 27 28.63 +07 10 16.4                 EU032361
    PK06T010  C2006 10 16.15677 10 28 40.38 +06 57 02.4          13.1 N EU032104
    PK06T010  C2006 10 16.15777 10 28 40.60 +06 57 00.2          13.1 N EU032104
    PK06T010  C2006 10 16.19281 10 28 47.94 +06 55 38.4                 EU032143
    PK06T010  C2006 10 16.19506 10 28 48.42 +06 55 33.2                 EU032143
    PK06T010  C2006 10 16.19731 10 28 48.88 +06 55 27.6                 EU032143
    PK06T010  C2006 10 16.47980 10 29 48.68 +06 44 28.7          13.9 N EU032H06
    PK06T010  C2006 10 16.48482 10 29 49.77 +06 44 17.0          13.9 N EU032H06
    PK06T010  C2006 10 16.50931 10 29 54.97 +06 43 19.6                 EU032693
    PK06T010  C2006 10 16.51130 10 29 55.39 +06 43 15.2                 EU032693
    PK06T010  C2006 10 16.51329 10 29 55.82 +06 43 10.4                 EU032693
    PK06T010  C2006 10 16.51542 10 29 56.25 +06 43 06.7                 EU032693
    PK06T010  C2006 10 17.14536 10 32 08.76 +06 18 34.2                 EU032048
    PK06T010  C2006 10 17.14657 10 32 09.03 +06 18 31.2                 EU032048
    PK06T010  C2006 10 17.14738 10 32 09.21 +06 18 29.1                 EU032048
    PK06T010  C2006 10 17.14779 10 32 09.29 +06 18 28.6                 EU032048
    PK06T010  C2006 10 17.14821 10 32 09.39 +06 18 27.0                 EU032048
    PK06T010  C2006 10 18.82618 10 37 59.45 +05 13 29.6          14.3 N EU032379
    PK06T010  C2006 10 18.82759 10 37 59.75 +05 13 27.1          14.6 N EU032379
    PK06T010  C2006 10 20.15520 10 42 33.23 +04 22 21.5          14.6 N EU032A79
    PK06T010  C2006 10 20.15832 10 42 33.85 +04 22 13.9          14.7 N EU032A79
    PK06T010  C2006 10 20.16066 10 42 34.39 +04 22 08.5          14.8 N EU032A79
    PK06T010  C2006 10 20.16227 10 42 34.61 +04 22 05.1          14.4 N EU032A79
    PK06T010  C2006 10 20.16348 10 42 34.90 +04 22 01.4          14.7 N EU032A79

Observer details:
048 Hradec Kralove.  Observer M. Lehky.  0.40-m f/5 reflector + CCD.
104 San Marcello Pistoiese.  Observers L. Tesi, A. Boattini, G. Fagioli,
    M. Mazzucato, F. Dolfi.  Measurers G. Forti, L. Tesi, A. Boattini,
    G. Fagioli, F. Dolfi, M. Mazzucato.  0.60-m f/4 reflector + CCD.
118 Modra.  Observers S. Gajdos, J. Vilagi.  0.6-m f/5.5 reflector + CCD.
143 Gnosca.  Observer S. Sposetti.  0.40-m f/4 reflector + CCD.
349 Ageo.  Observer K. Kadota.  0.25-m f/5.0 reflector + CCD.
361 Sumoto.  Observer S. Nakano.  0.25-m f/4.8 reflector + CCD.
372 Geisei.  Observer T. Seki.  0.60-m f/3.5 reflector.
379 Hamamatsu-Yuto.  Observer S. Wakuda.  0.25-m f/5.0 Schmidt-Cassegrain
    + CCD.
461 Szeged University, Piszkesteto Stn. (Konkoly).  Observers K. Sarneczky,
    Z. Kuli.  0.60-m Schmidt + CCD.
693 Catalina Station, Tucson.  Observer C. W. Hergenrother.  1.54-m reflector
    + CCD.
A79 Zvezdno Obshtestvo Observatory, Plana.  Observers F. Fratev, C. Kaldiev,
    E. Mihaylova.  Measurer F. Fratev.  0.25-m f/3.2 reflector + CCD.
D70 Tosa.  Observer S. Shimomoto.  0.20-m f/6.3 Schmidt-Cassegrain + CCD.
H06 RAS Observatory, Mayhill.  Observers M. Suzuki, E. Guido, G. Sostero.
    0.25-m f/3.4 reflector + CCD.

Orbital elements:
    P/2006 T1 (Levy)
T 2006 Oct. 7.434 TT                                    MPC
q   0.98926              (2000.0)            P               Q
n   0.188953       Peri.  179.457       -0.161211       -0.937048
a   3.00770        Node   279.792       +0.904293       -0.014533
e   0.67109        Incl.   18.321       +0.395304       -0.348897
P   5.22
From 216 observations 2006 Oct. 2-20.

Ephemeris:
    P/2006 T1 (Levy)
Date    TT    R. A. (2000) Decl.     Delta      r     Elong.  Phase   m1    m2
2006 10 12    10 13.73   +09 40.0    1.362    0.991    46.6    47.0  11.1
2006 10 22    10 48.81   +03 11.9    1.401    1.010    46.1    45.2  11.3
2006 11 01    11 21.24   -02 56.8    1.446    1.048    46.4    43.3  11.5
2006 11 11    11 51.48   -08 37.4    1.493    1.101    47.5    41.5  11.8
2006 11 21    12 19.82   -13 45.9    1.539    1.166    49.3    39.9  12.1
2006 12 01    12 46.38   -18 21.5    1.580    1.240    51.7    38.6  12.4
2006 12 11    13 11.22   -22 25.7    1.614    1.321    54.9    37.6  12.7
2006 12 21    13 34.31   -26 01.2    1.640    1.406    58.6    36.7  13.1
2006 12 31    13 55.48   -29 10.9    1.655    1.494    63.1    35.9  13.3

Brian G. Marsden             (C) Copyright 2006 MPC           M.P.E.C. 2006-U32

Read MPEC 2006-U31 Read MPEC 2006-U33


Our Web policy. Index to the CBAT/MPC/ICQ pages.


Valid HTML 4.01!